Location: Honolulu
(21.3069°N, 157.8583°W)
Time: 19:39:37
(UTC-10:00)

Explorer 11/Cluster Stage 4 - Pass Details

Date: 18 September 2025
Orbit: 463 x 1181 km, 28.8° (Epoch: 08 December)

Event Time Altitude Azimuth Distance (km) Brightness Sun altitude
Rises 11:42:15 0° 286° (WNW) 2,812 9.3 67.6°
Reaches altitude 10° 11:44:59 10° 299° (WNW) 1,806 8.4 67.9°
Maximum altitude 11:48:27 26° 357° (N) 1,009 7.3 68.2°
Drops below altitude 10° 11:51:36 10° 56° (NE) 1,630 8.3 68.5°
Sets 11:53:56 0° 70° (ENE) 2,477 9.2 68.8°
